Eagle, AK

12:10 PM AKDT on August 25, 2016 (GMT -0800)
Eagle

Weather History for PAEG - January, 2013

Change the Weather History Date:

Tuesday, January 8, 2013

  Actual Average (PABN) Record (PABN)
Temperature  
Mean Temperature 4 °F -  
Max Temperature 6 °F 0 °F 28 °F (2005)
Min Temperature 0 °F -5 °F -47 °F (2009)
Degree Days  
Heating Degree Days 62    
Moisture  
Dew Point -2 °F    
Average Humidity 78    
Maximum Humidity 85    
Minimum Humidity 75    
Precipitation  
Precipitation 0.00 in - - ()
Sea Level Pressure  
Sea Level Pressure 29.78 in    
Wind  
Wind Speed 0 mph (North)    
Max Wind Speed 0 mph    
Max Gust Speed -    
Visibility 9 miles    
Events Snow    
Averages and records for this station are not official NWS values.
T = Trace of Precipitation, MM = Missing Value Source: NWS Daily Summary

Daily Weather History Graph

Daily Weather History Graph

Search for Another Location

Airport or City:

Trip Planner

Search our weather history database for the weather conditions in past years. The results will help you decide how hot, cold, wet, or windy it might be!

Date:

Astronomy

Jan. 08, 2013 Rise Set
Actual Time 10:14 AM AKST 2:49 PM AKST
Civil Twilight 8:58 AM AKST 4:04 PM AKST
Nautical Twilight 7:50 AM AKST 5:13 PM AKST
Astronomical Twilight 6:50 AM AKST 6:13 PM AKST
Moon 6:50 AM AKST (1/8) 12:03 PM AKST (1/8)
Length of Visible Light 7h 06m
Length of Day
4h 34m
Waning Crescent, 12% of the Moon is Illuminated
Jan 8
Waning Crescent
Jan 11
New
Jan 18
First Quarter
Jan 26
Full
Feb 3
Last Quarter

Hourly Weather History & Observations

Time (AKST) Temp. Dew Point Humidity Pressure Visibility Wind Dir Wind Speed Gust Speed Precip Events Conditions
12:53 AM 1.0 °F -5.1 °F 75% 29.60 in 10.0 mi Calm Calm - N/A   Overcast
1:53 AM 1.0 °F -4.0 °F 79% 29.63 in 10.0 mi Calm Calm - N/A   Overcast
3:20 AM 1.4 °F -4.0 °F 78% 29.58 in 10.0 mi Calm Calm - N/A   Overcast
3:50 AM 1.4 °F -4.0 °F 78% 29.58 in 10.0 mi Calm Calm - N/A   Overcast
3:53 AM 1.9 °F -4.0 °F 76% 29.65 in 10.0 mi Calm Calm - N/A   Overcast
4:53 AM 1.9 °F -4.0 °F 76% 29.67 in 10.0 mi Calm Calm - N/A   Overcast
5:53 AM 1.9 °F -2.9 °F 80% 29.68 in 10.0 mi Calm Calm - N/A   Overcast
6:18 AM 1.4 °F -2.2 °F 85% 29.61 in 10.0 mi Calm Calm - N/A   Overcast
6:53 AM 3.0 °F -2.9 °F 76% 29.70 in 10.0 mi Calm Calm - N/A   Overcast
7:53 AM 3.0 °F -2.0 °F 80% 29.72 in 10.0 mi Calm Calm - N/A   Overcast
8:01 AM 3.2 °F -2.2 °F 78% 29.65 in 10.0 mi Calm Calm - N/A   Overcast
8:53 AM 3.0 °F -2.0 °F 80% 29.74 in 10.0 mi Calm Calm - N/A   Overcast
9:43 AM 3.2 °F -2.2 °F 78% 29.68 in 10.0 mi Calm Calm - N/A   Overcast
9:53 AM 3.9 °F -0.9 °F 80% 29.75 in 10.0 mi Calm Calm - N/A   Overcast
10:49 AM 5.0 °F -0.4 °F 78% 29.71 in 10.0 mi Calm Calm - N/A   Overcast
10:53 AM 5.0 °F -0.0 °F 80% 29.79 in 10.0 mi Calm Calm - N/A   Overcast
11:53 AM 6.1 °F -0.0 °F 76% 29.81 in 10.0 mi Calm Calm - N/A   Overcast
12:53 PM 6.1 °F -0.0 °F 76% 29.82 in 10.0 mi Calm Calm - N/A   Overcast
1:53 PM 6.1 °F -0.0 °F 76% 29.85 in 10.0 mi Calm Calm - N/A   Overcast
2:53 PM 5.0 °F -0.9 °F 76% 29.87 in 3.0 mi Calm Calm - 0.00 in Snow Light Snow
3:53 PM 5.0 °F -0.9 °F 76% 29.88 in 7.0 mi Calm Calm - 0.00 in Snow Light Snow
4:11 PM 5.0 °F -0.4 °F 78% 29.82 in 9.0 mi Calm Calm - 0.00 in   Overcast
4:53 PM 5.0 °F -0.0 °F 80% 29.90 in 3.0 mi Calm Calm - 0.00 in Snow Light Snow
5:53 PM 5.0 °F -0.9 °F 76% 29.92 in 7.0 mi Calm Calm - 0.00 in Snow Light Snow
6:53 PM 3.9 °F -0.9 °F 80% 29.94 in 5.0 mi Calm Calm - 0.00 in Snow Light Snow
8:53 PM 3.9 °F -2.0 °F 76% 29.99 in 7.0 mi Calm Calm - 0.00 in   Overcast
9:53 PM 3.0 °F -2.9 °F 76% 30.01 in 10.0 mi Calm Calm - 0.00 in   Overcast
10:53 PM 3.0 °F -2.9 °F 76% 30.04 in 4.0 mi Calm Calm - 0.00 in Snow Light Snow
11:53 PM -0.0 °F -6.0 °F 76% 30.06 in 8.0 mi Calm Calm - 0.00 in   Overcast